Location: Forst
(46.9333°N, 15.4333°E)
Time: 20:09:46
(UTC+00:00)

SKYMED 2 - Pass Details

Date: 01 December 2020
Orbit: 621 x 623 km, 97.9° (Epoch: 27 January)

Event Time Altitude Azimuth Distance (km) Brightness Sun altitude
Exits shadow 16:34:42 16° 37° (NE) 1,653 5.3 -13.7°
Maximum altitude 16:37:43 35° 97° (E) 1,015 4.2 -14.2°
Drops below altitude 10° 16:41:41 10° 163° (SSE) 1,989 6.2 -14.9°
Sets 16:44:01 0° 173° (S) 2,890 7.1 -15.3°
